metlocid,date_time,avg_rh,std_rh,min_rh,max_rh,n_rh,n_comments
BOYM,11/24/93,65.35034515,1.699018376,61.11,67.36,58,0
BOYM,11/25/93,56.40909727,10.74874106,32.95,75.87,144,0
BOYM,11/26/93,66.61166649,11.98983456,44.3,85.83,144,0
BOYM,11/27/93,78.34937504,3.244321929,73.22,84.09,144,0
BOYM,11/28/93,70.58409712,7.966166064,52.65,81.32,144,0
BOYM,11/29/93,58.25326374,11.36141375,43.07,79.02,144,0
BOYM,11/30/93,52.71055558,5.671540613,45.16,65.2,144,0
BOYM,12/1/93,53.82597213,4.099307464,43.56,64.35,144,0
BOYM,12/2/93,50.62270855,14.17213728,25.1,71.72,144,0
BOYM,12/3/93,69.9819444,5.955847775,60.35,81.99,144,0
BOYM,12/4/93,68.78208335,2.279378544,65.3,73.72,144,0
BOYM,12/5/93,64.74923613,4.976511786,58.33,73.97,144,0
BOYM,12/6/93,55.54395835,4.526541305,48.23,66.62,144,0
BOYM,12/7/93,54.65374989,2.355890071,50.67,61.77,144,0
BOYM,12/8/93,61.421736,1.909078651,58.16,65.59,144,0
BOYM,12/9/93,50.57131947,8.998666591,27,66.08,144,0
BOYM,12/10/93,53.64645825,2.452224001,49.16,58.84,144,0
BOYM,12/11/93,52.25812499,2.719653415,46.25,58.17,144,0
BOYM,12/12/93,63.10513878,12.65111289,48.05,83.85,144,0
BOYM,12/13/93,66.9008335,6.524065628,56.86,78.55,144,0
BOYM,12/14/93,50.51368037,11.62229027,30.02,70.53,144,0
BOYM,12/15/93,48.45354177,15.02038272,24.4,73.78,144,0
BOYM,12/16/93,26.26708329,1.986582246,23.7,30.67,144,0
BOYM,12/17/93,27.76687496,3.353231263,22.5,34.5,144,0
BOYM,12/18/93,81.71541656,23.11436194,28.1,99.99,144,26
BOYM,12/19/93,59.03097222,8.659453006,47.77,82.63,144,0
BOYM,12/20/93,76.07930544,8.827033647,54.1,84.67,144,0
BOYM,12/21/93,90.16145807,3.81413893,81.84,96.03,144,0
BOYM,12/22/93,81.21201377,10.15923844,62.35,94.3,144,0
BOYM,12/23/93,77.58034701,4.290826013,68.95,89.44,144,0
BOYM,12/24/93,67.80701388,6.689878759,54.88,79.14,144,0
BOYM,12/25/93,64.55576399,6.832854779,54.34,76.83,144,0
BOYM,12/26/93,36.96604167,7.997599837,22.8,59.64,144,0
BOYM,12/27/93,45.4959722,7.685278291,30.53,66.27,144,0
BOYM,12/28/93,66.88388893,7.658186597,52.31,75.14,144,0
BOYM,12/29/93,56.33736118,11.78231587,36.85,73.87,144,0
BOYM,12/30/93,29.04701391,5.966631012,21,49.95,144,0
BOYM,12/31/93,35.58854155,4.60231877,27.1,49.6,144,0
BOYM,1/1/94,33.68388874,4.328495172,26,47.45,144,0
BOYM,1/2/94,36.29652774,5.121084991,23.7,43.6,144,0
BOYM,1/3/94,43.7811109,3.363630008,34.2,47.7,144,0
BOYM,1/4/94,45.05506939,3.489459527,37.7,54.41,144,0
BOYM,1/5/94,61.58868059,10.0616513,48.4,82.54,144,0
BOYM,1/6/94,65.82333324,10.09238599,49.1,82.88,144,0
BOYM,1/7/94,52.65826395,10.11963114,38.5,72.39,144,0
BOYM,1/8/94,51.97180547,7.370105051,41.1,67.67,144,0
BOYM,1/9/94,44.94618048,6.723705806,28.3,61.07,144,0
BOYM,1/10/94,42.379236,5.13861276,22.2,51.7,144,0
BOYM,1/11/94,49.28194435,4.842181358,38.7,63.25,144,0
BOYM,1/12/94,34.88888889,6.945784486,23.6,50.7,90,0
BOYM,1/13/94,45.46874952,9.182185337,35.1,60.57,8,0
BOYM,1/14/94,39.01999998,4.600955871,32.5,45.1,8,0
BOYM,1/15/94,41.4375,2.783593441,38,46.1,8,0
BOYM,1/16/94,71.67000008,8.741664723,51.9,80.53,8,0
BOYM,1/17/94,74.03875065,6.308446139,67.07,83.14,8,0
BOYM,1/18/94,54.78999996,11.26297544,41.4,70.12,8,0
BOYM,1/19/94,64.86624956,14.15652297,51.34,87.7,8,0
BOYM,1/20/94,49.26250029,4.877056696,44.8,59.63,8,0
BOYM,1/21/94,52.40124941,6.606260311,41.1,62.61,8,0
BOYM,1/22/94,52.77999973,2.034122931,50.05,55.78,8,0
BOYM,1/23/94,47.44250059,11.93281951,36.64,74.26,8,0
BOYM,1/24/94,63.68874931,11.06989584,47,75.74,8,0
BOYM,1/25/94,62.03375101,5.391363182,53.97,68.67,8,0
BOYM,1/26/94,63.8237505,8.966399346,53.52,75.26,8,0
BOYM,1/27/94,56.84375,8.994393977,46.5,66.08,8,0
BOYM,1/28/94,63.97125053,3.65045392,58.13,68.61,8,0
BOYM,1/29/94,75.5824995,5.885403768,65.1,80.01,8,0
BOYM,1/30/94,72.15625143,6.214264979,63.24,79.98,8,0
BOYM,1/31/94,56.75624943,13.04281621,40.73,71.72,8,0
BOYM,2/1/94,66.77624893,11.27889852,49.35,77.88,8,0
BOYM,2/2/94,47.55000019,3.242684386,43.65,52.9,8,0
BOYM,2/3/94,75.77125072,5.81969167,63.11,82.28,8,0
BOYM,2/4/94,69.72375011,5.977825841,64.24,78.09,8,0
BOYM,2/5/94,75.62374973,12.25884627,57.97,92.37,8,0
BOYM,2/6/94,87.04125118,5.996734296,76.95,93.4,8,0
BOYM,2/7/94,75.15000057,18.15458586,53.57,95.83,8,0
BOYM,2/8/94,56.8375001,10.43945229,48.38,78.03,8,0
BOYM,2/9/94,62.75374937,16.35034568,45.44,92.13,8,0
BOYM,2/10/94,86.1524992,4.036143003,80.2,90.67,8,0
BOYM,2/11/94,81.42250061,8.733592847,70.24,93.01,8,0
BOYM,2/12/94,84.63125038,3.621429223,79.37,89.93,8,0
BOYM,2/13/94,57.48125029,20.27939607,33.51,87.64,8,0
BOYM,2/14/94,46.04124975,11.64134977,35.16,68.79,8,0
BOYM,2/15/94,62.84250069,8.540866371,53.54,78.82,8,0
BOYM,2/16/94,45.40249968,10.93967503,32.42,59.84,8,0
BOYM,2/17/94,44.14374924,7.097760279,34.42,56.46,8,0
BOYM,2/18/94,47.80500031,3.348321823,43.23,54.04,8,0
BOYM,2/19/94,82.35499954,5.959014317,70.25,88.64,8,0
BOYM,2/20/94,80.0112505,10.20292936,66.23,90.62,8,0
BOYM,2/21/94,74.33999968,15.47112738,45.27,87.99,8,0
BOYM,2/22/94,41.2987504,6.783303345,33.61,52.16,8,0
BOYM,2/23/94,53.43875074,11.98807638,41.97,71.73,8,0
BOYM,2/24/94,55.56874943,10.4804964,44.68,74.21,8,0
BOYM,2/25/94,64.83249998,4.635108086,58.18,70.43,8,0
BOYM,2/26/94,66.53374958,3.800657769,59.79,70.97,8,0
BOYM,2/27/94,71.4725008,5.990687179,64.76,80.29,8,0
BOYM,2/28/94,59.98375082,15.15238515,38.9,74.82,8,0
BOYM,3/1/94,64.35250092,6.490846485,55.45,73.01,8,0
BOYM,3/2/94,65.14249992,5.675297076,55.87,72.37,8,0
BOYM,3/3/94,68.36750078,2.856940308,62.27,71.11,8,0
BOYM,3/4/94,71.66374969,4.146038068,66.17,77.28,8,0
BOYM,3/5/94,77.9175005,4.298531106,71.75,83.73,8,0
BOYM,3/6/94,77.27249908,4.5943534,72.06,82.52,8,0
BOYM,3/7/94,71.91874886,4.923401517,66.09,77.43,8,0
BOYM,3/8/94,73.7887516,3.409378797,67.12,76.67,8,0
BOYM,3/9/94,83.09749985,3.970806678,75.76,88.68,8,0
BOYM,3/10/94,65.85625029,16.04114745,49.68,85.8,8,0
BOYM,3/11/94,86.84749889,4.455083129,79.92,91.7,8,0
BOYM,3/12/94,71.02875042,10.86309528,52.29,89.68,8,0
BOYM,3/13/94,86.4100008,1.86878983,83.42,89.23,8,0
BOYM,3/14/94,86.82374954,5.093097369,76.94,91.21,8,0
BOYM,3/15/94,73.91125107,17.85415679,39.75,90.87,8,0
BOYM,3/16/94,58.11000061,12.46577992,42.56,77.1,8,0
BOYM,3/17/94,79.37125015,2.488417017,74.7,82.48,8,0
BOYM,3/18/94,46.3125,2.967744678,41.95,51.2,8,0
BOYM,3/19/94,56.91124916,13.14241886,46.32,79.84,8,0
BOYM,3/20/94,84.04125023,1.685301095,81.65,85.81,8,0
BOYM,3/21/94,83.76874924,1.868800948,81.7,86.12,8,0
BOYM,3/22/94,81.68249893,2.247759328,77.61,83.96,8,0
BOYM,3/23/94,83.51000023,1.241843087,81.24,85.21,8,0
BOYM,3/24/94,83.12999916,1.586954851,80.85,84.95,8,0
BOYM,3/25/94,71.09249926,12.53181463,49.75,81.85,8,0
BOYM,3/26/94,80.22375059,8.864466045,59.51,86.65,8,0
BOYM,3/27/94,63.00250006,16.81722984,40.91,79.24,8,0
BOYM,3/28/94,43.33874989,9.796558676,36.59,66.86,8,0
BOYM,3/29/94,57.21250105,17.05022594,39.29,76.58,8,0
BOYM,3/30/94,72.14874935,9.132239132,52.32,80.45,8,0
BOYM,3/31/94,77.74125099,1.58179374,75.98,79.66,8,0
BOYM,4/1/94,47.19500017,20.56201434,31.75,75.3,8,0
BOYM,4/2/94,47.06250048,11.45028369,36.02,64.51,8,0
BOYM,4/3/94,79.57875156,4.118526933,70.73,82.66,8,0
BOYM,4/4/94,57.33625054,26.67586847,29.12,83.23,8,0
BOYM,4/5/94,37.07374978,8.444902571,29.98,53.58,8,0
BOYM,4/6/94,69.76250076,8.029257506,54.52,76.48,8,0
BOYM,4/7/94,56.78250027,18.88567096,37.4,78.73,8,0
BOYM,4/8/94,61.78374958,11.85622082,45.58,85.28,8,0
BOYM,4/9/94,95.77124977,2.425729318,90.56,98.08,8,0
BOYM,4/10/94,75.58125019,25.43359287,43.88,98.43,8,0
BOYM,4/11/94,50.44250011,6.48097356,43.18,61.15,8,0
BOYM,4/12/94,75.92250156,11.00270106,58.5,85.41,8,0
BOYM,4/13/94,85.75624943,2.930342814,81.14,89.02,8,0
BOYM,4/14/94,89.67000008,0.782943942,88.84,91.32,8,0
BOYM,4/15/94,91.58125114,0.825823658,90.51,92.5,8,0
BOYM,4/16/94,86.80375099,0.917388006,84.81,87.65,8,0
BOYM,4/17/94,63.21875048,24.10590842,40.13,87.8,8,0
BOYM,4/18/94,55.3499999,17.98578508,35.01,75.46,8,0
BOYM,4/19/94,73.09124994,16.90818355,35.94,86.21,8,0
BOYM,4/20/94,41.46750021,15.10068934,31.73,69.01,8,0
BOYM,4/21/94,73.43999958,4.794652344,64.88,78.83,8,0
BOYM,4/22/94,83.62499905,1.783911332,80.33,85.21,8,0
BOYM,4/23/94,86.38500023,0.838553035,85.29,87.36,8,0
BOYM,4/24/94,75.39500022,19.7145297,29.26,85.83,8,0
BOYM,4/25/94,69.08875036,27.36651778,28.2,92.38,8,0
BOYM,4/26/94,66.01125002,26.20930644,37.87,91.3,8,0
BOYM,4/27/94,63.53124905,13.79405897,38.1,78.02,8,0
BOYM,4/28/94,81.86249924,1.734341672,79.14,83.86,8,0
BOYM,4/29/94,83.43000126,1.956645833,80.7,85.98,8,0
BOYM,4/30/94,79.5075016,2.496973689,76.73,83.08,8,0
BOYM,5/1/94,84.07875061,0.964224581,82.06,84.87,8,0
BOYM,5/2/94,61.74250126,10.51558517,49.5,77.37,8,0
BOYM,5/3/94,73.41874933,6.102143339,62.26,80.21,8,0
BOYM,5/4/94,71.71624994,11.59347806,58.56,85.27,8,0
BOYM,5/5/94,81.37999821,3.302751601,75.79,85.49,8,0
BOYM,5/6/94,53.39124918,11.51001792,40.03,70.35,8,0
BOYM,5/7/94,82.80624771,6.25259737,67.88,86.7,8,0
BOYM,5/8/94,89.72249985,1.429233386,87.09,91.47,8,0
BOYM,5/9/94,79.99749947,15.91549064,44,88.95,8,0
BOYM,5/10/94,70.84625053,19.55056227,39.32,85.99,8,0
BOYM,5/11/94,85.55499935,0.219415457,85.2,85.88,8,0
BOYM,5/12/94,86.91749954,0.494909457,86.18,87.62,8,0
BOYM,5/13/94,87.50874996,0.091409135,87.38,87.66,8,0
BOYM,5/14/94,86.88749886,0.219854511,86.53,87.17,8,0
BOYM,5/15/94,85.87500095,0.436185246,85.3,86.37,8,0
BOYM,5/16/94,85.59625053,0.640601756,84.62,86.54,8,0
BOYM,5/17/94,86.34250069,1.108636548,84.65,87.77,8,0
BOYM,5/18/94,83.37625027,3.199788762,76.73,86.28,8,0
BOYM,5/19/94,81.75500011,2.468700388,77.54,83.69,8,0
BOYM,5/20/94,66.23875046,16.04199394,46.11,82.76,8,0
BOYM,5/21/94,38.77875042,2.023521332,35.97,42.59,8,0
BOYM,5/22/94,39.7524991,1.214175255,37.53,41.42,8,0
BOYM,5/23/94,42.98624992,13.23763922,32.38,63.11,8,0
BOYM,5/24/94,64.8300004,2.349662221,60.89,67.67,8,0
BOYM,5/25/94,59.56124973,3.075768827,55.59,63.53,8,0
BOYM,5/26/94,38.18249989,2.603496578,35.57,42.05,8,0
BOYM,5/27/94,69.3300004,10.29507523,44.88,76.49,8,0
BOYM,5/28/94,66.19999981,13.46168192,43.04,76.05,8,0
BOYM,5/29/94,75.82499981,1.094506468,73.67,76.72,8,0
BOYM,5/30/94,77.00500011,5.279521697,68.31,82.82,8,0
BOYM,5/31/94,82.69124985,4.158689754,72.46,84.61,8,0
BOYM,6/1/94,65.40625048,14.13765836,39.64,77.01,8,0
BOYM,6/2/94,80.66374969,3.722246042,73.74,84.18,8,0
BOYM,6/3/94,83.04874992,0.653810877,82.23,84.24,8,0
BOYM,6/4/94,65.1449995,16.09871854,40.4,82.34,8,0
BOYM,6/5/94,56.42374992,13.00273183,38.45,72.59,8,0
BOYM,6/6/94,39.27624989,2.956459985,36.05,45.16,8,0
BOYM,6/7/94,34.17374992,2.138095966,31.86,38.98,8,0
BOYM,6/8/94,33.77999926,0.93803683,32.38,34.87,8,0
BOYM,6/9/94,33.77124953,1.596070175,31.17,35.71,8,0
BOYM,6/10/94,36.50499964,3.868753514,33.59,45.6,8,0
BOYM,6/11/94,55.16499949,15.63387415,37.37,75.25,8,0
BOYM,6/12/94,58.10750103,16.08822634,37.69,73.55,8,0
BOYM,6/13/94,76.29750061,4.179410781,71.26,82.21,8,0
BOYM,6/14/94,83.20750046,0.29470386,82.68,83.54,8,0
BOYM,6/15/94,80.39624977,3.686024895,71.45,82.44,8,0
BOYM,6/16/94,69.89000034,6.422089327,56.85,76.55,8,0
BOYM,6/17/94,76.56375027,13.65349046,47.04,86.35,8,0
BOYM,6/18/94,62.30749893,27.7796716,35.46,93.24,8,0
BOYM,6/19/94,91.99249935,1.65283913,90.06,94.33,8,0
BOYM,6/20/94,68.44749975,26.55272422,35.7,89.92,8,0
BOYM,6/21/94,50.41875076,11.32403106,37.76,70.08,8,0
BOYM,6/22/94,77.68499947,3.120114041,71.83,80.64,8,0
BOYM,6/23/94,81.47375011,0.125235071,81.29,81.62,8,0
BOYM,6/24/94,80.88250065,0.204294181,80.63,81.3,8,0
BOYM,6/25/94,66.61875057,15.96950761,41.22,80.68,8,0
BOYM,6/26/94,73.04500008,8.205971816,54.5,80.22,8,0
BOYM,6/27/94,80.17625046,0.723936614,79.14,81.12,8,0
BOYM,6/28/94,81.67000008,1.957302759,78.13,83.62,8,0
BOYM,6/29/94,85.32249928,0.92663369,83.54,86.04,8,0
BOYM,6/30/94,85.13374901,1.873720009,80.53,86.09,8,0
BOYM,7/1/94,44.60624981,9.671356814,35.7,60.14,8,0
BOYM,7/2/94,37.45249987,6.395937512,33.04,52.62,8,0
BOYM,7/3/94,78.77624989,3.993845291,70.21,82.69,8,0
BOYM,7/4/94,58.01375055,8.808875619,44.58,68.44,8,0
BOYM,7/5/94,68.64750051,9.264222127,50.3,75.44,8,0
BOYM,7/6/94,80.65750027,3.339417042,74.98,83.11,8,0
BOYM,7/7/94,81.71624947,0.937596218,80.17,82.51,8,0
BOYM,7/8/94,82.00125027,0.326864994,81.49,82.5,8,0
BOYM,7/9/94,83.12375069,0.255785387,82.91,83.57,8,0
BOYM,7/10/94,83.10499954,0.329805234,82.68,83.49,8,0
BOYM,7/11/94,81.24875069,0.872966224,80.05,82.48,8,0
BOYM,7/12/94,77.50250053,4.889950444,65.62,79.86,8,0
BOYM,7/13/94,53.84375,14.44319428,32.25,67.35,8,0
BOYM,7/14/94,33.78499985,4.336697762,31.51,44.47,8,0
BOYM,7/15/94,39.90249968,2.565071804,35.96,42.7,8,0
BOYM,7/16/94,56.94250107,22.88672132,34.88,86.91,8,0
BOYM,7/17/94,44.66375017,16.294141,27.63,68.75,8,0
BOYM,7/18/94,53.28749943,22.01661603,29.86,90.75,8,0
BOYM,7/19/94,62.73874903,7.272673273,47.37,69.24,8,0
BOYM,7/20/94,76.36499977,2.64842773,70.75,78.92,8,0
BOYM,7/21/94,79.92124939,0.444536817,79.45,80.89,8,0
BOYM,7/22/94,80.13000011,0.455473753,79.23,80.64,8,0
BOYM,7/23/94,79.43875027,0.26898967,78.96,79.74,8,0
BOYM,7/24/94,78.84624958,0.622321482,77.81,79.54,8,0
BOYM,7/25/94,80.13874817,0.371269234,79.45,80.59,8,0
BOYM,7/26/94,79.00749969,0.502016819,78.35,79.77,8,0
BOYM,7/27/94,62.94499898,21.55756133,28.57,78.09,8,0
BOYM,7/28/94,24.86749983,1.098112079,23.66,26.83,8,0
BOYM,7/29/94,30.48249984,14.55292699,24.63,66.49,8,0
BOYM,7/30/94,66.39249992,6.549586905,54.78,74.15,8,0
BOYM,7/31/94,61.35625076,8.905922651,42.86,71.64,8,0
BOYM,8/1/94,47.46749973,10.95168405,38.35,63.85,8,0
BOYM,8/2/94,40.65250063,1.683565506,39.13,44.24,8,0
BOYM,8/3/94,60.20000124,17.87401228,37.86,76.12,8,0
BOYM,8/4/94,72,3.195215525,67.21,75,8,0
BOYM,8/5/94,73.59999847,0.868199505,72.47,74.77,8,0
BOYM,8/6/94,73.41249943,0.746855618,72.18,74.36,8,0
BOYM,8/7/94,52.9712491,11.51052944,38.55,65.24,8,0
BOYM,8/8/94,46.02874994,5.818073231,38.16,56.17,8,0
BOYM,8/9/94,59.71500015,14.4334213,29.32,72.34,8,0
BOYM,8/10/94,75.8550005,2.077388576,72.7,77.86,8,0
BOYM,8/11/94,76.49874973,0.511758837,75.89,77.35,8,0
BOYM,8/12/94,75.13624859,0.571563985,74.27,75.94,8,0
BOYM,8/13/94,74.20625019,0.502078683,73.57,75.03,8,0
BOYM,8/14/94,73.39875031,0.548515893,72.67,74.23,8,0
BOYM,8/15/94,72.5274992,0.216712739,72.31,72.9,8,0
BOYM,8/16/94,73.34999943,0.303315851,72.95,73.91,8,0
BOYM,8/17/94,73.59125137,0.290980819,73.12,73.98,8,0
BOYM,8/18/94,72.44250011,0.445541759,71.88,73.07,8,0
BOYM,8/19/94,72.42125034,0.451012644,71.76,72.87,8,0
BOYM,8/20/94,72.7300005,0.073093914,72.62,72.84,8,0
BOYM,8/21/94,71.96624947,0.521862649,71.28,72.67,8,0
BOYM,8/22/94,72.2699995,1.047813969,70.86,73.96,8,0
BOYM,8/23/94,79.13624954,1.712681502,76.69,81.56,8,0
BOYM,8/24/94,74.80749989,0.617224221,74.13,75.91,8,0
BOYM,8/25/94,63.14625025,14.44814552,41.11,77.44,8,0
BOYM,8/26/94,72.11500072,14.38750678,38.07,80.71,8,0
BOYM,8/27/94,61.52750063,15.48842996,38.04,78.89,8,0
BOYM,8/28/94,38.36874962,1.115622263,36.26,39.32,8,0
BOYM,8/29/94,35.5762496,1.036201364,34.62,37.73,8,0
BOYM,8/30/94,36.08624983,3.151221192,34.01,43.35,8,0
BOYM,8/31/94,59.62625074,15.5459419,34.77,80.11,8,0
BOYM,9/1/94,45.64750051,14.81274452,34.59,70.56,8,0
BOYM,9/2/94,69.5737505,10.94080353,45.07,77.61,8,0
BOYM,9/3/94,77.38750172,3.85412469,73.48,82.76,8,0
BOYM,9/4/94,82.12125111,0.865439185,80.86,83.23,8,0
BOYM,9/5/94,81.06874943,0.720463409,79.73,82.03,8,0
BOYM,9/6/94,70.12625122,17.21837544,36.32,81.48,8,0
BOYM,9/7/94,38.12249994,6.037751678,33.07,48.34,8,0
BOYM,9/8/94,28.75749993,0.98437431,27.16,30.14,8,0
BOYM,9/9/94,59.76875114,10.32190372,37.74,70.98,8,0
BOYM,9/10/94,74.01124954,2.791101306,69.95,76.7,8,0
BOYM,9/11/94,78.77999973,1.854069904,74.67,80.69,8,0
BOYM,9/12/94,80.36499882,0.304536341,79.93,80.81,8,0
BOYM,9/13/94,78.81249905,0.871085832,77.95,79.84,8,0
BOYM,9/14/94,48.14625072,14.31059932,32.56,77.72,8,0
BOYM,9/15/94,44.36375046,7.049350694,38.4,56.81,8,0
BOYM,9/16/94,40.25500011,1.874688495,38.01,43.41,8,0
BOYM,9/17/94,58.61249971,4.228159155,51.43,65.09,8,0
BOYM,9/18/94,69.53375149,1.612371887,67.18,72.18,8,0
BOYM,9/19/94,72.71124935,0.923725686,70.68,73.63,8,0
BOYM,9/20/94,73.38499928,0.772639955,72.2,74.75,8,0
BOYM,9/21/94,74.94000053,0.796581574,73.83,76.01,8,0
BOYM,9/22/94,77.21874905,1.21358149,74.83,78.59,8,0
BOYM,9/23/94,75.81124973,1.935815832,72.75,78.15,8,0
BOYM,9/24/94,76.05999947,1.151433365,74.2,78.02,8,0
BOYM,9/25/94,78.35374928,1.111586627,75.98,79.43,8,0
BOYM,9/26/94,29.2724998,6.569406583,25.81,45.37,8,0
BOYM,9/27/94,40.87750053,7.229494305,26.18,50.05,8,0
BOYM,9/28/94,37.15374994,4.149072624,34.7,47.24,8,0
BOYM,9/29/94,42.79999971,4.318051547,36.68,49.51,8,0
BOYM,9/30/94,57.15999985,4.160614404,51.96,63.87,8,0
BOYM,10/1/94,38.67999983,8.934655251,31.6,53.58,8,0
BOYM,10/2/94,38.81874943,15.64301561,27.96,64.28,8,0
BOYM,10/3/94,53.0562501,10.69726251,31.16,64.17,8,0
BOYM,10/4/94,72.63000107,4.722786464,64.79,78.67,8,0
BOYM,10/5/94,55.06249976,26.86832171,27.42,82.36,8,0
BOYM,10/6/94,29.62124991,1.006158928,28.44,31.19,8,0
BOYM,10/7/94,47.59374928,21.04969316,25.92,76.88,8,0
BOYM,10/8/94,67.20374966,16.27188204,36.69,79.53,8,0
BOYM,10/9/94,32.75874972,1.569207729,30.49,35.63,8,0
BOYM,10/10/94,45.82125044,10.97666451,34.61,64.05,8,0
BOYM,10/11/94,67.26124954,5.534514149,57.82,77.3,8,0
BOYM,10/12/94,79.81125069,4.281460144,75.57,85.73,8,0
BOYM,10/13/94,76.65125084,5.088556116,68.93,82.32,8,0
BOYM,10/14/94,75.83124924,7.132917453,69.01,83.52,8,0
BOYM,10/15/94,50.98999977,15.40706609,34.9,74.31,8,0
BOYM,10/16/94,46.14750099,7.415300309,36.65,54.54,8,0
BOYM,10/17/94,56.81499958,9.117227427,47.91,73.84,8,0
BOYM,10/18/94,70.17249966,1.986223148,66.14,72.62,8,0
BOYM,10/19/94,45.05000019,5.920910419,36.01,51.33,8,0
BOYM,10/20/94,38.97624969,9.869476448,32.86,62.73,8,0
BOYM,10/21/94,75.17624855,3.856025734,69.01,80.78,8,0
BOYM,10/22/94,69.7612505,10.02638599,59.22,83.3,8,0
BOYM,10/23/94,88.08625031,4.700168037,79.67,91.92,8,0
BOYM,10/24/94,90.07999992,7.122516953,80.15,97.99,8,0
BOYM,10/25/94,77.81375027,9.602943515,66.68,88.79,8,0
BOYM,10/26/94,81.95625114,4.066023731,76.15,86.19,8,0
BOYM,10/27/94,75.11124992,7.538565561,64.65,83.93,8,0
BOYM,10/28/94,75.32000017,6.532211241,60.62,82.22,8,0
BOYM,10/29/94,64.85000038,16.22805652,47.7,84.88,8,0
BOYM,10/30/94,66.69124985,10.79329815,52.25,82.73,8,0
BOYM,10/31/94,38.25750017,3.241339361,34.81,43.58,8,0
BOYM,11/1/94,55.31249905,12.18495734,33.96,69.88,8,0
BOYM,11/2/94,47.01750112,20.25202922,28.28,82.73,8,0
BOYM,11/3/94,56.93125057,24.23791304,32.1,83.94,8,0
BOYM,11/4/94,37.83749962,3.408806437,34,43.98,8,0
BOYM,11/5/94,48.04374981,18.03622093,35.14,75.64,8,0
BOYM,11/6/94,58.5250001,17.84855177,28.29,80.61,8,0
BOYM,11/7/94,57.32500029,8.343986136,50.65,75.48,8,0
BOYM,11/8/94,36.59249997,6.343076856,31.81,50.66,8,0
BOYM,11/9/94,63.42500067,6.681910202,53.54,71.65,8,0
BOYM,11/10/94,58.64750051,18.85573466,35.19,82.37,8,0
BOYM,11/11/94,55.88249969,3.611169361,51.19,61.65,8,0
BOYM,11/12/94,55.49285698,2.984547728,49.66,61.89,28,0
BOYM,11/13/94,49.90361097,4.311988632,40.82,58.06,72,0
BOYM,11/14/94,59.95666673,7.689405478,48.47,77,72,0
BOYM,11/15/94,76.35541683,7.293919379,64.98,86.26,72,0
BOYM,11/16/94,63.3422219,13.682308,48.87,85.59,72,0
BOYM,11/17/94,52.64583344,14.67228975,34,75.83,72,0
BOYM,11/18/94,60.93652778,4.542196333,48.01,69.24,72,0
BOYM,11/19/94,73.23583317,9.023292444,58.16,87.51,72,0
BOYM,11/20/94,59.60249975,3.722348908,54.78,66.72,72,0
BOYM,11/21/94,61.2145835,10.11302909,46.63,82.36,72,0
BOYM,11/22/94,77.06527774,6.418315566,67.59,86.71,72,0
BOYM,11/23/94,62.28408453,13.59929369,46.44,83.27,71,0
BOYM,11/24/94,62.18666681,8.201249841,48.33,78.14,72,0
BOYM,11/25/94,50.08180563,19.9613176,24.9,81.79,72,0
BOYM,11/26/94,70.40361092,7.002446839,56.47,83.19,72,0
BOYM,11/27/94,67.92513884,10.40820966,56.3,85.16,72,0
BOYM,11/28/94,65.91027811,4.552266414,58.39,75.93,72,0
BOYM,11/29/94,62.60597245,2.979035155,58.56,72.13,72,0
BOYM,11/30/94,58.80263885,4.337680864,55.32,70.89,72,0
BOYM,12/1/94,53.65972243,2.418512352,50.46,59.6,72,0
BOYM,12/2/94,50.1345831,3.733860179,43.22,59.46,72,0
BOYM,12/3/94,49.94152768,7.627471372,37.19,66.98,72,0
BOYM,12/4/94,73.08652777,8.945346762,55.09,83.2,72,0
BOYM,12/5/94,57.47791666,8.373557733,47.06,77.74,72,0
BOYM,12/6/94,51.57499997,3.918733288,45.8,60.96,72,0
BOYM,12/7/94,37.86541666,6.834215718,25,49.33,72,0
BOYM,12/8/94,38.88569434,6.640404622,24.76,51.72,72,0
BOYM,12/9/94,37.19486125,6.180315723,26,49.72,72,0
BOYM,12/10/94,33.39069472,1.344804781,29.8,36.9,72,0
BOYM,12/11/94,36.30249998,4.33470171,28.69,45.1,72,0
BOYM,12/12/94,29.699861,3.428218624,24.1,37.11,72,0
BOYM,12/13/94,43.24083328,15.12102423,23.1,68.77,72,0
BOYM,12/14/94,72.55222278,6.162136603,62.25,81.2,72,0
BOYM,12/15/94,73.29847209,7.444902271,56.5,83.18,72,0
BOYM,12/16/94,77.11444452,2.463966608,72.7,80.76,72,0
BOYM,12/17/94,75.17111089,4.447861374,68.95,83.25,72,0
BOYM,12/18/94,71.75069417,3.774798706,63.96,78.58,72,0
BOYM,12/19/94,62.37833336,6.688736603,50.3,75.6,72,0
BOYM,12/20/94,59.30069441,7.148791496,46.71,72.19,72,0
BOYM,12/21/94,66.22361162,5.609781992,53.97,74.3,72,0
BOYM,12/22/94,58.13986121,10.05324781,39.04,77.48,72,0
BOYM,12/23/94,70.33666658,8.006246006,59.38,81.97,72,0
BOYM,12/24/94,59.07166661,5.253198206,50.12,68.48,72,0
BOYM,12/25/94,49.98611119,14.45739527,24.46,70.39,72,0
BOYM,12/26/94,46.20194438,9.547431835,31.1,62.63,72,0
BOYM,12/27/94,36.17597198,3.234538729,28.84,41.12,72,0
BOYM,12/28/94,43.84208345,5.781755014,33.72,60.84,72,0
BOYM,12/29/94,41.29499997,2.762007894,36.8,47.8,72,0
BOYM,12/30/94,43.23388916,4.727905387,31.2,51.69,72,0
BOYM,12/31/94,56.29166645,8.746199279,48.2,76.71,72,0
BOYM,1/1/95,53.80624994,11.5424361,28.2,74.07,72,0
BOYM,1/2/95,57.47930532,12.41540788,48.4,86.23,72,0
BOYM,1/3/95,84.86499967,4.952184328,76.13,92.77,72,0
BOYM,1/4/95,66.65166675,10.25656644,55.64,82.93,72,0
BOYM,1/5/95,50.0234721,2.654163964,43.3,55.21,72,0
BOYM,1/6/95,61.09833315,5.605743733,51.45,72.58,72,0
BOYM,1/7/95,63.08958345,14.30330915,46.5,89.75,72,0
BOYM,1/8/95,37.05166658,8.226173656,25.5,54.56,72,0
BOYM,1/9/95,30.50624988,6.46536353,22.6,44.89,72,0
BOYM,1/10/95,35.93083326,6.237915857,22.5,43,72,0
BOYM,1/11/95,47.87888903,8.684423101,33.4,72.73,72,0
BOYM,1/12/95,74.37361113,4.525618457,65.03,81.71,72,0
BOYM,1/13/95,72.19847255,6.133519525,59.53,83.22,72,0
BOYM,1/14/95,68.38305558,10.15458648,53.3,82.97,72,0
BOYM,1/15/95,61.00861099,7.484504932,38.6,71.03,72,0
BOYM,1/16/95,57.73805565,13.46267578,41.02,81.6,72,0
BOYM,1/17/95,44.24875005,3.912145002,37.58,51.06,72,0
BOYM,1/18/95,60.8626389,5.927118603,46.32,70.32,72,0
BOYM,1/19/95,62.18541723,14.68554017,39.2,81.26,72,0
BOYM,1/20/95,67.04101419,10.1573388,52.44,82.61,69,0
BOYM,1/21/95,45.36458336,15.1359355,27.56,78.98,72,0
BOYM,1/22/95,42.42097211,6.516666018,29.61,55.69,72,0
BOYM,1/23/95,56.83722226,8.232357876,40.39,73.64,72,0
BOYM,1/24/95,64.60763905,5.243505446,53.79,73.88,72,0
BOYM,1/25/95,59.18708335,17.6816819,37.21,85.17,72,0
BOYM,1/26/95,61.36930561,4.398340182,48.2,68.87,72,0
BOYM,1/27/95,57.95611148,13.06645845,41.45,81.68,72,0
BOYM,1/28/95,66.25347201,14.06811046,44.45,84.79,72,0
BOYM,1/29/95,63.03374969,12.73361913,50.24,82.88,72,0
BOYM,1/30/95,47.48944447,11.74695156,32.92,70.85,72,0
BOYM,1/31/95,52.21236118,6.633722557,32.46,65.5,72,0
BOYM,2/1/95,30.71263883,1.438045518,27.3,34.45,72,0
BOYM,2/2/95,23.32527775,0.967323864,21.5,27.78,72,0
BOYM,2/3/95,36.78277779,12.19793982,21.63,51.63,72,0
BOYM,2/4/95,44.91166666,8.706283647,26.09,56.81,72,0
BOYM,2/5/95,39.37180554,15.47425055,25.27,75.49,72,0
BOYM,2/6/95,31.453611,2.734367765,25.88,37.51,72,0
BOYM,2/7/95,41.74208342,8.753267378,25.92,60.02,72,0
BOYM,2/8/95,55.00666677,16.4817206,36.14,83.96,72,0
BOYM,2/9/95,40.7880555,10.96421409,24.72,58.88,72,0
BOYM,2/10/95,54.91763878,2.912748661,48,61.24,72,0